Hourly Weather Roundup
Issued by NWS Central Illinois

Current Version | Previous Version | Text Only | Print | Product List | Glossary On
Versions: 1 2 3 4 5 6 7 8 9 10 11 12 13 14 15 16 17 18 19 20 21 22 23 24 25 26 27 28 29 30 31 32 33 34 35 36 37 38 39 40 41 42 43 44 45 46 47 48 49 50
000
NZUS43 KILX 230010
HWRILX

AREA WEATHER ROUNDUP
NATIONAL WEATHER SERVICE, LINCOLN IL
700 PM CDT MON SEP 22 2014


CITY           SKY/WX    TMP DP  RH WIND       PRES   REMARKS
BLOOMINGTON    CLEAR     66  41  40 N3        30.25F
6HR MIN TEMP:  64; 6HR MAX TEMP:  71;

CHAMPAIGN      CLEAR     59  47  64 NW5       30.24S
6HR MIN TEMP:  59; 6HR MAX TEMP:  69;

DECATUR        CLEAR     65  43  44 CALM      30.24S
6HR MIN TEMP:  64; 6HR MAX TEMP:  71;

FLORA          CLEAR     64  46  52 N5        30.24R
GALESBURG      CLEAR    N/A N/A N/A CALM      30.24S
JACKSONVILLE   CLEAR     65  49  56 CALM      30.25S
6HR MIN TEMP:  65; 6HR MAX TEMP:  74; 6HR PCP:  0.01;

LACON          CLEAR     58  49  72 CALM      30.24S
6HR MIN TEMP:  58; 6HR MAX TEMP:  68;

LAWRENCEVILLE  CLEAR     60  51  72 NE3       30.23S
6HR MIN TEMP:  60; 6HR MAX TEMP:  72;

LITCHFIELD     CLEAR     66  46  49 NE3       30.23S
$$


CITY           SKY/WX    TMP DP  RH WIND       PRES   REMARKS
LINCOLN        CLEAR     62  46  55 CALM      30.22S
6HR MIN TEMP:  62; 6HR MAX TEMP:  72;

MACOMB         CLEAR     65  45  49 NE5       30.26S
MATTOON        CLEAR     61  44  53 CALM      30.23S
6HR MIN TEMP:  61; 6HR MAX TEMP:  70;

MT CARMEL AP   CLEAR     66  46  48 CALM      30.23S
OLNEY-NOBLE AP CLEAR     55  52  88 CALM      30.24S
PARIS          CLEAR     56  52  85 CALM      30.25R
6HR MIN TEMP:  56; 6HR MAX TEMP:  69;

PEORIA         CLEAR     63  49  60 CALM      30.24F
6HR MIN TEMP:  63; 6HR MAX TEMP:  72;

PONTIAC        CLEAR     59  48  67 CALM      30.24F
RANTOUL        CLEAR     65  41  40 N5        30.25R
6HR MIN TEMP:  65; 6HR MAX TEMP:  71;

ROBINSON       CLEAR     61  52  70 CALM      30.24S
6HR MIN TEMP:  61; 6HR MAX TEMP:  71;

SPRINGFIELD    CLEAR     63  50  62 NW5       30.24S
6HR MIN TEMP:  63; 6HR MAX TEMP:  74;

TAYLORVILLE    CLEAR     63  46  55 CALM      30.24R
$$

...REGIONAL REPORTS...


CITY           SKY/WX    TMP DP  RH WIND       PRES   REMARKS
CHICAGO O`HARE CLEAR     65  43  44 CALM      30.23R
KANKAKEE       CLEAR     60  47  62 CALM      30.25S HAZE
MOLINE         CLEAR     61  50  67 S3        30.23S
MOUNT VERNON   CLEAR     61  48  63 CALM      30.24S
PITTSFIELD     CLEAR     63  52  67 CALM      30.25S
QUINCY         CLEAR     69  42  37 CALM      30.23S
ROCKFORD       PTCLDY    63  46  54 SW5       30.25R
$$


CITY           SKY/WX    TMP DP  RH WIND       PRES   REMARKS
BURLINGTON     CLEAR     63  50  62 CALM      30.23F
CEDAR RAPIDS   CLEAR     62  50  64 S3        30.22S
DES MOINES     PTCLDY    69  50  50 S6        30.21S
KIRKSVILLE     PTCLDY    63  53  70 CALM      30.25S
OTTUMWA        PTCLDY    65  47  52 S3        30.23S
ST LOUIS       PTCLDY    70  46  42 N3        30.23S
$$


CITY           SKY/WX    TMP DP  RH WIND       PRES   REMARKS
TERRE HAUTE    CLEAR     56  50  80 CALM      30.24R
EVANSVILLE     CLEAR     63  47  55 N3        30.23R
INDIANAPOLIS   CLEAR     61  42  49 N5        30.23S
LAFAYETTE      CLEAR     56  50  80 NW3       30.24R
MADISON        PTCLDY    60  51  72 CALM      30.20F
MILWAUKEE      PTCLDY    66  45  46 W5        30.20S
$$





USA.gov is the U.S. government's official web portal to all federal, state and local government web resources and services.